DW8622 Weather Reports


time (UTC)temp
F
wind
direction
speed
knots
gust
knots
rain 1hr
in
rain 24hr
in
rain mn
in
humidity
%
barometer
mb
20260510140006 64 5 5.2 12.2 0.00 0.00 0.00 62 1012.7
20260510135505 64 347 5.2 12.2 0.00 0.00 0.00 61 1012.7
20260510135005 64 344 5.2 12.2 0.00 0.00 0.00 60 1012.7
20260510134505 64 357 4.3 10.4 0.00 0.00 0.00 60 1012.8
20260510134005 65 357 4.3 10.4 0.00 0.00 0.00 61 1012.9
20260510132505 65 3 5.2 12.2 0.00 0.00 0.00 57 1013.1
20260510132005 65 345 4.3 10.4 0.00 0.00 0.00 58 1013.1
20260510131505 64 346 6.1 12.2 0.00 0.00 0.00 59 1013.2
20260510130502 65 4 5.2 12.2 0.00 0.00 0.00 58 1013.2
20260510130006 65 7 6.1 12.2 0.00 0.00 0.00 55 1013.3
20260510125505 65 359 5.2 11.3 0.00 0.00 0.00 58 1013.3
20260510124505 65 2 4.3 11.3 0.00 0.00 0.00 58 1013.5
20260510124021 65 355 5.2 11.3 0.00 0.00 0.00 59 1013.6
20260510123505 65 359 4.3 9.6 0.00 0.00 0.00 57 1013.6
20260510123006 65 11 5.2 9.6 0.00 0.00 0.00 58 1013.7
20260510122505 65 13 6.1 12.2 0.00 0.00 0.00 61 1013.7
20260510122005 64 5 5.2 12.2 0.00 0.00 0.00 58 1013.9
20260510121506 65 355 5.2 12.2 0.00 0.00 0.00 58 1013.9
20260510121005 65 7 6.1 13.9 0.00 0.00 0.00 55 1013.9
20260510120505 65 7 6.1 13.9 0.00 0.00 0.00 58 1013.9
20260510120005 65 6 6.1 10.4 0.00 0.00 0.00 55 1013.9
20260510115505 65 4 7.0 11.3 0.00 0.00 0.00 60 1014.0
20260510115005 65 7 6.1 11.3 0.00 0.00 0.00 55 1014.0
20260510114505 66 7 6.1 11.3 0.00 0.00 0.00 58 1014.0
20260510114005 65 356 5.2 11.3 0.00 0.00 0.00 58 1014.0
20260510113005 65 7 5.2 11.3 0.00 0.00 0.00 61 1014.1
20260510112505 65 2 5.2 11.3 0.00 0.00 0.00 58 1014.2
20260510112005 65 5 5.2 10.4 0.00 0.00 0.00 60 1014.2
20260510111505 65 7 5.2 11.3 0.00 0.00 0.00 59 1014.3
20260510111005 63 357 5.2 11.3 0.00 0.00 0.00 61 1014.3
20260510110506 63 348 5.2 10.4 0.00 0.00 0.00 62 1014.4
20260510105506 63 345 4.3 10.4 0.00 0.00 0.00 62 1014.5
20260510105005 64 345 5.2 10.4 0.00 0.00 0.00 59 1014.4
20260510104005 65 352 5.2 12.2 0.00 0.00 0.00 59 1014.5
20260510103505 64 351 4.3 11.3 0.00 0.00 0.00 60 1014.5
20260510103005 65 359 5.2 9.6 0.00 0.00 0.00 61 1014.6
20260510102506 64 357 5.2 10.4 0.00 0.00 0.00 61 1014.6
20260510102005 63 345 4.3 10.4 0.00 0.00 0.00 61 1014.6
20260510101005 64 12 6.1 11.3 0.00 0.00 0.00 58 1014.7
20260510100005 64 358 5.2 11.3 0.00 0.00 0.00 58 1014.7
20260510095505 64 9 5.2 11.3 0.00 0.00 0.00 57 1014.8
20260510095005 64 10 5.2 13.0 0.00 0.00 0.00 58 1014.8
20260510094505 64 10 6.1 13.0 0.00 0.00 0.00 58 1014.8
20260510093505 64 355 5.2 10.4 0.00 0.00 0.00 56 1014.9
20260510092505 64 12 5.2 10.4 0.00 0.00 0.00 59 1015.0
20260510092005 64 1 5.2 10.4 0.00 0.00 0.00 59 1014.9
20260510091506 63 344 5.2 10.4 0.00 0.00 0.00 57 1015.0
20260510091005 63 347 4.3 10.4 0.00 0.00 0.00 56 1015.1
20260510090505 63 354 3.5 9.6 0.00 0.00 0.00 57 1015.1
20260510090006 63 349 3.5 9.6 0.00 0.00 0.00 56 1015.0
20260510085506 63 352 4.3 12.2 0.00 0.00 0.00 59 1015.0
20260510085006 62 1 5.2 12.2 0.00 0.00 0.00 61 1015.1
20260510084505 62 5 5.2 11.3 0.00 0.00 0.00 62 1015.0
20260510084006 63 2 5.2 11.3 0.00 0.00 0.00 61 1015.1
20260510083505 62 1 5.2 10.4 0.00 0.00 0.00 64 1015.2
20260510083005 61 1 5.2 10.4 0.00 0.00 0.00 64 1015.3
20260510082505 62 6 4.3 10.4 0.00 0.00 0.00 67 1015.4
20260510082005 62 3 4.3 10.4 0.00 0.00 0.00 69 1015.3
20260510081506 61 354 3.5 10.4 0.00 0.00 0.00 68 1015.4
20260510081005 60 351 4.3 11.3 0.00 0.00 0.00 69 1015.4
20260510080504 60 346 4.3 11.3 0.00 0.00 0.00 68 1015.3
20260510080005 60 343 3.5 9.6 0.00 0.00 0.00 69 1015.4
20260510075505 60 351 1.7 8.7 0.00 0.00 0.00 69 1015.4
20260510075005 60 357 2.6 12.2 0.00 0.00 0.00 68 1015.3
20260510074005 60 348 1.7 8.7 0.00 0.00 0.00 69 1015.4
20260510073504 60 356 1.7 8.7 0.00 0.00 0.00 72 1015.4
20260510073005 59 352 1.7 7.8 0.00 0.00 0.00 71 1015.5
20260510072505 59 342 1.7 7.8 0.00 0.00 0.00 75 1015.6
20260510072005 58 343 1.7 9.6 0.00 0.00 0.00 75 1015.6
20260510071505 58 350 1.7 9.6 0.00 0.00 0.00 76 1015.5
20260510071005 57 356 1.7 7.8 0.00 0.00 0.00 78 1015.6
20260510070505 57 351 1.7 7.8 0.00 0.00 0.00 80 1015.6
20260510070005 56 347 1.7 6.1 0.00 0.00 0.00 79 1015.5
20260510065505 56 349 1.7 6.1 0.00 0.00 0.00 80 1015.5
20260510064006 54 326 1.7 7.0 0.00 0.00 0.00 82 1015.5
20260510063505 54 328 1.7 7.0 0.00 0.00 0.00 83 1015.5
20260510063005 54 328 1.7 4.3 0.00 0.00 0.00 84 1015.5
20260510062506 53 327 1.7 8.7 0.00 0.00 0.00 84 1015.5
20260510062005 53 332 1.7 8.7 0.00 0.00 0.00 84 1015.6
20260510061005 52 325 1.7 8.7 0.00 0.00 0.00 86 1015.7
20260510055506 52 332 1.7 4.3 0.00 0.00 0.00 87 1015.5
20260510054505 51 332 2.6 7.8 0.00 0.00 0.00 88 1015.5
20260510054005 51 328 2.6 7.8 0.00 0.00 0.00 88 1015.6
20260510053505 51 325 2.6 4.3 0.00 0.00 0.00 89 1015.6
20260510053005 51 327 2.6 7.0 0.00 0.00 0.00 89 1015.7
20260510052506 51 329 1.7 7.0 0.00 0.00 0.00 89 1015.7
20260510052005 50 329 1.7 3.5 0.00 0.00 0.00 90 1015.5
20260510051005 50 331 1.7 5.2 0.00 0.00 0.00 91 1015.6
20260510050505 50 333 1.7 5.2 0.00 0.00 0.00 91 1015.5
20260510050005 49 329 1.7 6.1 0.00 0.00 0.00 91 1015.6
20260510045506 49 329 1.7 6.1 0.00 0.00 0.00 92 1015.6
20260510045005 49 329 2.6 4.3 0.00 0.00 0.00 92 1015.5
20260510044005 49 322 1.7 4.3 0.00 0.00 0.00 91 1015.6
20260510043505 49 323 1.7 5.2 0.00 0.00 0.00 91 1015.6
20260510042506 49 323 1.7 4.3 0.00 0.00 0.00 91 1015.5
20260510042005 49 326 1.7 4.3 0.00 0.00 0.00 91 1015.6
20260510041505 49 324 1.7 4.3 0.00 0.00 0.00 91 1015.5
20260510040505 49 326 1.7 4.3 0.00 0.00 0.00 91 1015.4
20260510040005 49 331 1.7 7.8 0.00 0.00 0.00 91 1015.4
20260510035005 49 329 2.6 6.1 0.00 0.00 0.00 90 1015.3
20260510034005 49 322 1.7 4.3 0.00 0.00 0.00 90 1015.3
20260510033505 49 323 1.7 4.3 0.00 0.00 0.00 90 1015.3
20260510033005 50 326 1.7 7.8 0.00 0.00 0.00 89 1015.4
20260510032505 50 329 2.6 7.8 0.00 0.00 0.00 90 1015.4
20260510032005 50 328 2.6 7.0 0.00 0.00 0.00 90 1015.4
20260510031505 50 327 3.5 7.0 0.00 0.00 0.00 90 1015.4
20260510031006 50 329 2.6 7.0 0.00 0.00 0.00 90 1015.5
20260510030505 50 332 2.6 6.1 0.00 0.00 0.00 90 1015.4
20260510025505 50 332 1.7 7.0 0.00 0.00 0.00 90 1015.6
20260510024505 50 329 1.7 4.3 0.00 0.00 0.00 90 1015.7
20260510024005 49 325 1.7 4.3 0.00 0.00 0.00 90 1015.7
20260510023005 50 319 2.6 5.2 0.00 0.00 0.00 90 1015.8
20260510022505 50 320 1.7 4.3 0.00 0.00 0.00 90 1015.7
20260510022005 50 322 1.7 5.2 0.00 0.00 0.00 90 1015.8
20260510021005 50 328 1.7 4.3 0.00 0.00 0.00 90 1015.9
20260510020505 50 328 1.7 4.3 0.00 0.00 0.00 90 1015.9
20260510020005 50 327 1.7 5.2 0.00 0.00 0.00 90 1015.9
20260510015005 50 333 1.7 4.3 0.00 0.00 0.00 90 1015.8
20260510014505 50 327 1.7 6.1 0.00 0.00 0.00 90 1015.9
20260510014005 50 324 1.7 6.1 0.00 0.00 0.00 89 1015.8
20260510013506 50 327 1.7 4.3 0.00 0.00 0.00 89 1015.8
20260510013005 50 320 0.0 2.6 0.00 0.00 0.00 89 1015.8
20260510011505 51 0 0.0 0.0 0.00 0.00 0.00 89 1015.8
20260510011006 51 0 0.0 0.0 0.00 0.00 0.00 89 1015.8
20260510010005 51 0 0.0 0.0 0.00 0.00 0.00 88 1015.9
20260510005505 51 0 0.0 0.0 0.00 0.00 0.00 88 1016.0
20260510005005 51 326 0.0 3.5 0.00 0.00 0.00 88 1016.0
20260510004505 51 326 0.9 3.5 0.00 0.00 0.00 88 1016.0
20260510004005 52 328 0.0 3.5 0.00 0.00 0.00 87 1016.1
20260510003505 52 335 0.9 3.5 0.00 0.00 0.00 87 1016.1
20260510003005 52 333 1.7 4.3 0.00 0.00 0.00 87 1016.2
20260510002005 52 333 2.6 6.1 0.00 0.00 0.00 87 1016.2
20260510001505 52 332 1.7 4.3 0.00 0.00 0.00 87 1016.2
20260510001005 52 336 1.7 4.3 0.00 0.00 0.00 87 1016.3
20260510000006 52 335 1.7 7.8 0.00 0.00 0.00 87 1016.3
20260509235505 52 335 1.7 7.0 0.00 0.00 0.00 87 1016.2
20260509235005 52 330 1.7 7.0 0.00 0.00 0.00 87 1016.2
20260509234005 53 327 1.7 3.5 0.00 0.00 0.00 86 1016.3
20260509233506 53 333 0.9 2.6 0.00 0.00 0.00 86 1016.3
20260509233005 53 350 0.9 3.5 0.00 0.00 0.00 85 1016.3
20260509232506 53 347 0.9 4.3 0.00 0.00 0.00 85 1016.2
20260509231505 53 340 1.7 3.5 0.00 0.00 0.00 85 1016.2
20260509231005 53 340 1.7 4.3 0.00 0.00 0.00 85 1016.3
20260509230505 53 332 1.7 5.2 0.00 0.00 0.00 85 1016.4
20260509225505 53 337 1.7 6.1 0.00 0.00 0.00 85 1016.4
20260509225005 53 340 1.7 5.2 0.00 0.00 0.00 85 1016.4
20260509224505 53 333 2.6 5.2 0.00 0.00 0.00 84 1016.4
20260509224005 53 331 1.7 5.2 0.00 0.00 0.00 84 1016.4
20260509223505 53 334 1.7 5.2 0.00 0.00 0.00 84 1016.4
20260509223005 53 335 1.7 4.3 0.00 0.00 0.00 83 1016.4
20260509222506 53 332 1.7 4.3 0.00 0.00 0.00 83 1016.5
20260509222005 53 335 1.7 4.3 0.00 0.00 0.00 83 1016.5
20260509221505 54 336 1.7 4.3 0.00 0.00 0.00 82 1016.4
20260509220507 54 347 1.7 4.3 0.00 0.00 0.00 81 1016.4
20260509220005 54 342 1.7 3.5 0.00 0.00 0.00 81 1016.4
20260509215505 54 343 1.7 3.5 0.00 0.00 0.00 81 1016.3
20260509214005 54 351 1.7 2.6 0.00 0.00 0.00 80 1016.4
20260509213505 54 352 1.7 3.5 0.00 0.00 0.00 79 1016.4
20260509213006 54 358 0.9 4.3 0.00 0.00 0.00 79 1016.5
20260509212506 54 2 0.9 4.3 0.00 0.00 0.00 79 1016.5
20260509211505 55 10 0.0 2.6 0.00 0.00 0.00 78 1016.6
20260509211006 55 15 0.9 5.2 0.00 0.00 0.00 77 1016.6
20260509210005 55 16 0.9 3.5 0.00 0.00 0.00 76 1016.6
20260509205505 55 15 0.9 4.3 0.00 0.00 0.00 76 1016.5
20260509205005 55 16 0.9 4.3 0.00 0.00 0.00 76 1016.5
20260509204006 56 10 1.7 7.0 0.00 0.00 0.00 75 1016.5
20260509203505 56 10 1.7 7.0 0.00 0.00 0.00 75 1016.4
20260509203005 56 3 1.7 4.3 0.00 0.00 0.00 75 1016.3
20260509202505 56 358 1.7 4.3 0.00 0.00 0.00 75 1016.3
20260509202005 56 7 0.9 4.3 0.00 0.00 0.00 74 1016.3
20260509201505 56 6 0.0 2.6 0.00 0.00 0.00 74 1016.4
20260509201006 56 6 0.9 2.6 0.00 0.00 0.00 73 1016.5
20260509200505 56 5 0.0 2.6 0.00 0.00 0.00 72 1016.5
20260509195505 57 348 0.0 3.5 0.00 0.00 0.00 71 1016.5
20260509195005 57 6 0.0 1.7 0.00 0.00 0.00 72 1016.5
20260509194505 57 18 0.0 3.5 0.00 0.00 0.00 72 1016.4
20260509194005 57 23 0.9 3.5 0.00 0.00 0.00 71 1016.4
20260509193505 58 26 0.9 3.5 0.00 0.00 0.00 70 1016.4
20260509192507 58 14 0.0 1.7 0.00 0.00 0.00 69 1016.4
20260509192006 58 8 0.9 4.3 0.00 0.00 0.00 69 1016.4
20260509191505 59 11 0.9 4.3 0.00 0.00 0.00 68 1016.3
20260509190505 59 16 1.7 3.5 0.00 0.00 0.00 67 1016.2
20260509185506 60 17 0.9 2.6 0.00 0.00 0.00 66 1016.2
20260509185020 60 17 1.7 3.5 0.00 0.00 0.00 66 1016.2
20260509184506 60 15 0.9 3.5 0.00 0.00 0.00 66 1016.2
20260509183505 61 359 0.9 4.3 0.00 0.00 0.00 64 1016.1
20260509183005 61 356 0.9 4.3 0.00 0.00 0.00 64 1016.0
20260509182505 62 15 0.9 4.3 0.00 0.00 0.00 63 1016.0
20260509182006 62 16 0.9 4.3 0.00 0.00 0.00 63 1016.0
20260509181505 62 9 0.9 4.3 0.00 0.00 0.00 61 1015.9
20260509181005 62 11 0.9 4.3 0.00 0.00 0.00 60 1015.9
20260509180506 62 17 0.9 4.3 0.00 0.00 0.00 61 1015.9
20260509180005 63 15 1.7 6.1 0.00 0.00 0.00 59 1015.9
20260509175005 63 14 2.6 7.8 0.00 0.00 0.00 58 1015.9
20260509174505 63 16 2.6 7.8 0.00 0.00 0.00 58 1015.9
20260509174005 64 359 1.7 5.2 0.00 0.00 0.00 57 1016.0
20260509173505 64 344 0.9 6.1 0.00 0.00 0.00 55 1016.0
20260509173006 64 350 1.7 6.1 0.00 0.00 0.00 54 1016.1
20260509172505 64 343 1.7 6.1 0.00 0.00 0.00 54 1016.1
20260509172005 65 339 0.9 4.3 0.00 0.00 0.00 54 1016.1
20260509171505 65 2 0.9 4.3 0.00 0.00 0.00 54 1016.0
20260509171005 65 13 1.7 7.8 0.00 0.00 0.00 56 1016.1
20260509170505 65 4 1.7 7.8 0.00 0.00 0.00 54 1016.0
20260509170005 65 346 1.7 6.1 0.00 0.00 0.00 56 1016.0
20260509165505 65 356 1.7 5.2 0.00 0.00 0.00 54 1016.1
20260509165006 65 11 2.6 7.8 0.00 0.00 0.00 54 1016.1
20260509164506 65 12 2.6 7.8 0.00 0.00 0.00 53 1016.1
20260509164005 65 7 2.6 7.8 0.00 0.00 0.00 55 1016.1
20260509163505 65 357 1.7 6.1 0.00 0.00 0.00 52 1016.1
20260509163005 65 14 1.7 7.0 0.00 0.00 0.00 51 1016.1
20260509162505 65 6 2.6 7.0 0.00 0.00 0.00 51 1016.1
20260509162006 65 344 1.7 6.1 0.00 0.00 0.00 52 1016.1
20260509161507 65 356 1.7 5.2 0.00 0.00 0.00 51 1016.1
20260509161005 65 23 2.6 7.8 0.00 0.00 0.00 52 1016.1
20260509160505 65 22 3.5 7.8 0.00 0.00 0.00 51 1016.1
20260509160005 66 15 1.7 6.1 0.00 0.00 0.00 52 1016.0
20260509155506 66 17 1.7 7.8 0.00 0.00 0.00 51 1016.0
20260509155005 67 16 3.5 7.8 0.00 0.00 0.00 48 1016.0
20260509154005 68 9 2.6 7.0 0.00 0.00 0.00 49 1015.9
20260509153506 68 4 1.7 7.0 0.00 0.00 0.00 48 1015.9
20260509153007 68 3 2.6 7.8 0.00 0.00 0.00 48 1015.9
20260509152505 69 10 3.5 7.8 0.00 0.00 0.00 50 1016.0
20260509152006 68 7 2.6 7.8 0.00 0.00 0.00 50 1016.0
20260509151506 67 335 1.7 6.1 0.00 0.00 0.00 52 1016.1
20260509151005 67 323 0.9 5.2 0.00 0.00 0.00 49 1016.2
20260509150505 67 20 0.0 2.6 0.00 0.00 0.00 47 1016.2
20260509150005 68 26 0.9 6.1 0.00 0.00 0.00 46 1016.2
20260509145505 68 7 1.7 6.1 0.00 0.00 0.00 48 1016.2
20260509145006 68 322 0.9 3.5 0.00 0.00 0.00 47 1016.2
20260509144506 67 319 0.9 3.5 0.00 0.00 0.00 50 1016.2
20260509144006 66 358 0.9 4.3 0.00 0.00 0.00 50 1016.2
20260509143505 66 19 0.9 4.3 0.00 0.00 0.00 51 1016.2
20260509142506 67 331 0.9 4.3 0.00 0.00 0.00 48 1016.3
20260509141505 69 37 3.5 7.0 0.00 0.00 0.00 49 1016.5